Cincinnati, OH

5:10 PM EDT on September 22, 2019 (GMT -0400)
Cincinnati Municipal-Lunken

Weather History for KLUK - July, 2019

Change the Weather History Date:

Thursday, July 18, 2019

  Actual Average Record
Temperature  
Mean Temperature 80 °F -  
Max Temperature 90 °F 88 °F 96 °F (1977)
Min Temperature 70 °F 65 °F 54 °F (2014)
Cooling Degree Days 15    
Growing Degree Days 30 (Base 50)    
Moisture  
Dew Point 73 °F    
Average Humidity 90    
Maximum Humidity 100    
Minimum Humidity 70    
Precipitation  
Precipitation 0.68 in - - ()
Sea Level Pressure  
Sea Level Pressure 29.95 in    
Wind  
Wind Speed 4 mph (SSW)    
Max Wind Speed 25 mph    
Max Gust Speed 33 mph    
Visibility 6 miles    
Events Fog , Rain , Thunderstorm    
Averages and records for this station are not official NWS values.
T = Trace of Precipitation, MM = Missing Value Source: NWS Daily Summary

Daily Weather History Graph

Daily Weather History Graph

Search for Another Location

Airport or City:

Astronomy

Jul. 18, 2019 Rise Set
Actual Time 6:26 AM EDT 9:01 PM EDT
Civil Twilight 5:55 AM EDT 9:32 PM EDT
Nautical Twilight 5:16 AM EDT 10:10 PM EDT
Astronomical Twilight 4:33 AM EDT 10:53 PM EDT
Moon 10:26 PM EDT (7/18) 7:54 AM EDT (7/18)
Length of Visible Light 15h 37m
Length of Day
14h 35m
Full, 97% of the Moon is Illuminated
Jul 18
Full
Jul 24
Last Quarter
Jul 31
New
Aug 7
First Quarter
Aug 15
Full

Hourly Weather History & Observations

Time (EDT) Temp. Heat Index Dew Point Humidity Pressure Visibility Wind Dir Wind Speed Gust Speed Precip Events Conditions
12:53 AM 73.9 °F - 73.0 °F 97% 29.96 in 9.0 mi SW 3.5 mph - N/A   Scattered Clouds
1:53 AM 73.0 °F - 72.0 °F 96% 29.94 in 3.0 mi NE 3.5 mph - N/A   Clear
2:01 AM 73.0 °F - 73.0 °F 100% 29.95 in 2.5 mi NNE 3.5 mph - N/A   Clear
2:08 AM 73.9 °F - 73.0 °F 97% 29.95 in 7.0 mi Calm Calm - N/A   Clear
2:34 AM 73.0 °F - 72.0 °F 96% 29.95 in 1.8 mi Calm Calm - N/A   Clear
2:48 AM 71.6 °F - 71.6 °F 100% 29.95 in 3.0 mi Calm Calm - N/A   Clear
2:53 AM 72.0 °F - 72.0 °F 100% 29.93 in 3.0 mi East 3.5 mph - N/A   Clear
3:12 AM 72.0 °F - 72.0 °F 100% 29.94 in 1.5 mi Calm Calm - N/A   Clear
3:30 AM 72.0 °F - 72.0 °F 100% 29.94 in 0.5 mi Calm Calm - N/A Fog Fog
3:40 AM 72.0 °F - 71.1 °F 97% 29.94 in 1.2 mi Calm Calm - N/A   Scattered Clouds
3:44 AM 72.0 °F - 71.1 °F 97% 29.93 in 0.8 mi Calm Calm - N/A   Mist
3:53 AM 72.0 °F - 72.0 °F 100% 29.92 in 0.2 mi Calm Calm - N/A Fog Fog
4:03 AM 70.0 °F - 70.0 °F 100% 29.94 in 0.5 mi SW 3.5 mph - N/A Fog Fog
4:20 AM 71.1 °F - 71.1 °F 100% 29.93 in 1.2 mi SSE 3.5 mph - N/A   Partly Cloudy
4:23 AM 71.1 °F - 71.1 °F 100% 29.93 in 4.0 mi SSE 3.5 mph - N/A   Partly Cloudy
4:53 AM 70.0 °F - 70.0 °F 100% 29.92 in 4.0 mi Calm Calm - N/A   Clear
5:28 AM 70.0 °F - 70.0 °F 100% 29.94 in 0.8 mi Calm Calm - N/A   Clear
5:51 AM 71.6 °F - 71.6 °F 100% 29.95 in 2.0 mi Calm Calm - N/A   Clear
5:53 AM 71.1 °F - 71.1 °F 100% 29.94 in 5.0 mi Calm Calm - N/A   Clear
6:05 AM 70.0 °F - 70.0 °F 100% 29.95 in 1.8 mi Calm Calm - N/A   Clear
6:18 AM 70.0 °F - 70.0 °F 100% 29.96 in 4.0 mi Calm Calm - N/A   Clear
6:53 AM 71.1 °F - 71.1 °F 100% 29.96 in 6.0 mi Calm Calm - N/A   Clear
7:21 AM 71.1 °F - 71.1 °F 100% 29.98 in 6.0 mi South 3.5 mph - N/A   Partly Cloudy
7:53 AM 73.0 °F - 73.0 °F 100% 29.98 in 6.0 mi Calm Calm - N/A   Partly Cloudy
8:53 AM 77.0 °F - 73.9 °F 90% 29.98 in 10.0 mi South 3.5 mph - N/A   Clear
9:53 AM 80.1 °F 85.1 °F 75.0 °F 85% 29.98 in 10.0 mi Calm Calm - N/A   Scattered Clouds
10:53 AM 82.9 °F 91.8 °F 77.0 °F 82% 29.96 in 10.0 mi Variable 4.6 mph - N/A   Mostly Cloudy
11:53 AM 86.0 °F 96.9 °F 77.0 °F 74% 29.96 in 10.0 mi South 3.5 mph - N/A   Mostly Cloudy
12:53 PM 88.0 °F 100.2 °F 77.0 °F 70% 29.96 in 10.0 mi SW 6.9 mph - N/A   Scattered Clouds
1:53 PM 88.0 °F 100.2 °F 77.0 °F 70% 29.95 in 10.0 mi SSW 6.9 mph - N/A   Scattered Clouds
2:25 PM 90.0 °F 105.8 °F 79.0 °F 70% 29.96 in 10.0 mi SSW 9.2 mph - N/A Thunderstorm Mostly Cloudy
2:44 PM 86.0 °F 96.0 °F 75.9 °F 72% 29.95 in 8.0 mi SSW 9.2 mph - N/A   Mostly Cloudy
2:53 PM 84.9 °F 93.3 °F 75.0 °F 72% 29.94 in 8.0 mi NW 8.1 mph - 0.06 in Rain Light Rain
3:04 PM 80.1 °F 85.1 °F 75.0 °F 85% 29.99 in 2.5 mi NNW 25.3 mph 33.4 mph 0.06 in Rain Heavy Rain
3:09 PM 78.1 °F - 73.9 °F 87% 30.00 in 1.0 mi NNW 12.7 mph 33.4 mph 0.17 in Rain , Thunderstorm Heavy Thunderstorms and Rain
3:35 PM 75.0 °F - 73.0 °F 94% 29.96 in 3.0 mi West 15.0 mph - 0.61 in Rain , Thunderstorm Heavy Thunderstorms and Rain
3:42 PM 75.9 °F - 73.0 °F 91% 29.96 in 3.0 mi SW 17.3 mph - 0.62 in Rain , Thunderstorm Light Thunderstorms and Rain
3:53 PM 75.9 °F - 72.0 °F 87% 29.96 in 3.0 mi SW 17.3 mph - 0.62 in Rain , Thunderstorm Light Thunderstorms and Rain
4:21 PM 79.0 °F - 73.9 °F 84% 29.96 in 10.0 mi Calm Calm - 0.00 in   Partly Cloudy
4:53 PM 82.9 °F 90.2 °F 75.0 °F 77% 29.95 in 10.0 mi NE 9.2 mph - 0.00 in   Clear
5:53 PM 82.0 °F 87.4 °F 73.0 °F 74% 29.94 in 10.0 mi ENE 9.2 mph - N/A   Clear
6:53 PM 84.0 °F 91.2 °F 73.9 °F 72% 29.91 in 10.0 mi SSW 8.1 mph - N/A   Clear
7:53 PM 82.0 °F 88.6 °F 75.0 °F 79% 29.90 in 10.0 mi South 6.9 mph - N/A   Clear
8:53 PM 79.0 °F - 72.0 °F 79% 29.90 in 10.0 mi South 4.6 mph - N/A   Clear
9:53 PM 77.0 °F - 72.0 °F 84% 29.91 in 10.0 mi SSW 3.5 mph - N/A   Clear
10:53 PM 75.9 °F - 73.0 °F 91% 29.91 in 10.0 mi SSW 5.8 mph - N/A   Clear
11:53 PM 75.9 °F - 73.0 °F 91% 29.93 in 10.0 mi South 3.5 mph - N/A   Clear